Location: Barrio Las Umbrías
(40.4173°N, 4.8685°W)
Time: 13:06:25
(UTC+00:00)

Cosmos 1346 Rocket - Pass Details

Date: 17 August 2022
Orbit: 526 x 543 km, 81.2° (Epoch: 28 September)

Event Time Altitude Azimuth Distance (km) Brightness Sun altitude
Rises 20:53:53 0° 356° (N) 2,717 7.0 -17.7°
Reaches altitude 10° 20:56:07 10° 2° (N) 1,820 5.9 -18.0°
Maximum altitude 21:00:01 48° 78° (ENE) 718 3.1 -18.6°
Enters shadow 21:00:31 45° 103° (ESE) 749 3.0 -18.7°
